Regional Weather Roundup
Issued by NWS

Home | Current Version | Previous Version | Graphics & Text | Print | Product List | Glossary On
Versions: 1 2 3 4 5 6 7 8 9 10 11 12 13 14 15 16 17 18 19 20 21 22 23 24 25 26 27 28 29 30 31 32 33 34 35 36 37 38 39 40 41 42 43 44 45 46 47 48 49 50
000
ASUS45 KCYS 311810
RWRWY

WYOMING REGIONAL WEATHER ROUNDUP
NATIONAL WEATHER SERVICE CHEYENNE WY
1200 PM MDT MON AUG 31 2015

NOTE:  "FAIR" INDICATES FEW OR NO CLOUDS BELOW 12,000 FEET
WITH NO SIGNIFICANT WEATHER AND/OR OBSTRUCTIONS TO VISIBILITY.

WYZ001-311900-
YELLOWSTONE NATIONAL PARK

CITY           SKY/WX    TMP DP  RH WIND       PRES   REMARKS
LK YELLOWSTONE   N/A     59  27  29 SW8       30.26S
6HR MIN TEMP:  31; 6HR MAX TEMP:  59;

W YELLOWSTONE  NOT AVBL

$$
WYZ002>013-054>058-071-098>099-311900-
NORTHERN WYOMING

CITY           SKY/WX    TMP DP  RH WIND       PRES   REMARKS
JACKSON        SUNNY     68  27  21 S12G23    30.18F
CODY           FAIR      75  27  16 S8        30.02F
GREYBULL       FAIR      76  33  21 CALM      29.98F
6HR MIN TEMP:  53; 6HR MAX TEMP:  77;

WORLAND        FAIR      76  45  33 N8        29.99F
6HR MIN TEMP:  46; 6HR MAX TEMP:  76;

SHERIDAN       FAIR      74  45  35 E13       30.00F
6HR MIN TEMP:  50; 6HR MAX TEMP:  75;

BUFFALO        FAIR      68  44  42 SE21G26   30.06F
6HR MIN TEMP:  50; 6HR MAX TEMP:  68;

GILLETTE       FAIR      70  45  40 SE8       30.04F
6HR MIN TEMP:  54; 6HR MAX TEMP:  71;

HULETT         FAIR      70  45  40 NE6       30.05F
NEWCASTLE      FAIR      73  43  33 CALM      30.03F

$$
WYZ014>020-022>026-101>103-311900-
CENTRAL WYOMING

CITY           SKY/WX    TMP DP  RH WIND       PRES   REMARKS
BIG PINEY      FAIR      68  16  13 CALM      30.24F
6HR MIN TEMP:  36; 6HR MAX TEMP:  69;

PINEDALE       FAIR      66  19  16 CALM      30.25F
DUBOIS         FAIR      68  16  13 W20G29    30.17F
LANDER         FAIR      76  34  21 E5        30.06F
6HR MIN TEMP:  53; 6HR MAX TEMP:  76;

RIVERTON       FAIR      77  31  18 MISG      30.07F
6HR MIN TEMP:  55; 6HR MAX TEMP:  78;

CASPER         FAIR      78  44  29 W7        30.07F
6HR MIN TEMP:  60; 6HR MAX TEMP:  79;

DOUGLAS        FAIR      78  46  32 VRB3      30.08F
6HR MIN TEMP:  64; 6HR MAX TEMP:  78;


$$
WYZ021-027>030-104>119-311900-
SOUTHERN WYOMING

CITY           SKY/WX    TMP DP  RH WIND       PRES   REMARKS
EVANSTON       FAIR      74  37  26 SW13G22   30.24F
6HR MIN TEMP:  49; 6HR MAX TEMP:  74;

KEMMERER       FAIR      72  25  17 W12       30.26S
FORT BRIDGER   CLEAR     72  39  30 CALM      30.26F
ROCK SPRINGS   FAIR      70  45  40 SW9       30.23F
6HR MIN TEMP:  50; 6HR MAX TEMP:  70;

DIXON          MOCLDY    75  49  38 SW7G23    30.26F
RAWLINS        FAIR      73  44  35 SW20G26   30.22F
6HR MIN TEMP:  58; 6HR MAX TEMP:  74;

SARATOGA       MOCLDY    70  46  43 S7        30.25F
LARAMIE        FAIR      74  43  32 W12       30.24F
6HR MIN TEMP:  54; 6HR MAX TEMP:  74;

CHEYENNE       FAIR      82  43  25 W5        30.16F
6HR MIN TEMP:  65; 6HR MAX TEMP:  82;

TORRINGTON     FAIR      84  46  26 W5        30.02S
6HR MIN TEMP:  69; 6HR MAX TEMP:  85; 6HR PCP: TRACE;

PINE BLUFFS    FAIR      79  43  27 NE5       30.12S

$$



USA.gov is the U.S. government's official web portal to all federal, state and local government web resources and services.